Showing default

OPS 9345 (IDSCS 23), 3288

Orbit data source: Space-Track

OPS 9345 (IDSCS 23), 3288 is a payload satellite owned by SAMSO (US) in GEO that was launched on Thu, 13 Jun 1968 UTC via a TITAN IIIC launch vehicle from the Air Force Eastern Test Range (AFETR). Payload-class satellites include a variety of spacecraft equipped with specific instruments for various scientific and technological missions. These include communications satellites like Starlink; space stations such as the ISS; scientific satellites like the Hubble; Earth observation satellites from companies like Planet Labs, Umbra, and HawkEye 360; GPS; miniature CubeSats for education and research; and military/defense satellites.

Not visible in the next 10 days
Identifier
3288, 1968-050E
Orbit
GEO
Country
Flag of USUS
Related business
Manufacturer
Philco-Ford
Mission
Non-operational spacecraft
Bus & Motor
IDCSP, Unknown motor
Mass
45 kg wet, 45 kg dry
Launch date (UTC)
1968-06-13 (57 years ago)
Launch vehicle
TITAN IIIC
Launch site
Air Force Eastern Test Range (AFETR)
Object type
Payload
Rocket body
Debris
Shape & HBR
Unknown
Radar Cross Section
Small (<0.1 m²)

Expand to show TLE details & history
Last TLE update: 2 days ago

TLE from 2 days ago
0 OPS 9345 (IDSCS 23)
1 03288U 68050E   25300.40759650 -.00000065  00000-0  00000-0 0  9998
2 03288   6.6212  54.9287 0036275 138.8124 304.9055  1.07478169136745
Epoch: 2025-10-27T09:46Z
TLE epoch observation values (Epoch: 2025-10-27T09:46:56.337Z)
Latitude
6.57167°
Longitude
-44.51453°
Altitude
33,796.042 km
Speed
3.153 km/s
True Right ascension
09h 12m 55s
True Declination
6° 33' 53"
Sunlit
Object was in daylight at epoch
Visualization orbit readout
Latitude
Unknown
Longitude
Unknown
Altitude
Unknown
Speed
Unknown
Apparent Right ascension
Unknown
Apparent Declination
Unknown
Sunlit
N/A
Visualization observer readout
Local Sidereal Time
06:01:53
Azimuth
Unknown
Elevation
Unknown
Doppler factor
Unknown
Orbital elements
Apogee altitude
34,027.261 km
Perigee altitude
33,735.179 km
Semi-major axis
40,259.357 km
Eccentricity
0.00363
Inclination
6.6212°
RAAN
54.9287°
Arg. of periapsis
138.8124°
True anomaly
304.56372°
Mean anomaly
304.9055°
Eccentric anomaly
304.7347°
Mean motion
0.26868 °/min
Orbital period
1,339.86 mins
BSTAR
0
Loading maneuver chart data...
Computing Atmospheric mass density...
Loading historical data...
Loading historical data...
Loading historical data...
Loading historical data...
Loading historical data...
Loading historical data...
Loading historical data...

Documentation

Showing up to 5 results
|